www.pogodaiklimat.ru

Погода и климат >> Архив погоды >> Македония >> Демир-Капия


ПОГОДА в Демир-Капия

  • Прогноз погоды в Демир-Капия
  • Монитор погоды в Демир-Капия

АРХИВ ПОГОДЫ в Демир-Капия

Время (UTC), дата Ветер
(напр.,м/с)
 
Видим.   Явления Облачность Т
(С)
Тd
(С)
f
(%)
Тe
(С)
Тes
(С)
Комфортность P
(гПа)
Po
(гПа)
Тmin
(С)
Tmax
(С)
R
(мм)
R24
(мм)
S
(см)
09 13.08 штиль 0 20 км ясно +34.5 +13.0 27 +35 +55 опасность
солнечного
удара
1010.9 996.8
12 13.08 В 4 20 км ясно +38.4 +12.7 22 +38 +49 очень
жарко
1007.8 993.9
15 13.08 ЮВ 2 20 км ясно +38.8 +9.4 17 +37 +41 очень
жарко
1006.8 993.0
18 13.08 В 3 20 км ясно +33.7 +10.6 24 +33 +33 жарко 1007.2 993.2 +39.3
21 13.08 В 3 20 км ясно +28.6 +12.5 37 +30 +30 жарко 1009.3 995.0
00 14.08 Ю 3 20 км ясно +24.4 +11.4 44 +26 +26 жарко 1009.6 995.1
03 14.08 Ю 1 20 км ясно +19.8 +10.2 54 +22 +22 комфорт 1010.0 995.3
06 14.08 штиль 0 20 км ясно +25.6 +14.9 52 +28 +34 жарко 1009.5 995.1 +18.6
09 14.08 В 5 20 км ясно +31.7 +16.5 40 +35 +43 очень
душно
1007.8 993.7
12 14.08 В 6 20 км 5/3 1000 м
[Cu hum Ac trans Ci fib]
+35.8 +17.9 35 +40 +43 очень
душно
1005.6 991.7
15 14.08 В 3 20 км 5/4 1000 м
[Cu Sc Cs]
+36.9 +16.2 29 +39 +41 очень
душно
1003.5 989.7
18 14.08 СЗ 2 20 км 9/4 1000 м
[Cu Sc Ci fib]
+27.3 +16.0 50 +31 +31 душно 1010.1 995.7 +38.0
21 14.08 штиль 0 20 км гроза без осадков туман 9/9 1000 м
[Cb cap]
+23.9 +15.4 59 +27 +27 жарко 1011.5 997.0
00 15.08 ЮЗ 1 20 км {гроза, дождь} туман 5/5 1000 м
[Cu Sc]
+19.6 +17.8 89 +23 +23 комфорт 1012.7 998.0 4
03 15.08 штиль 0 20 км 6/6 1230 м
[Sc]
+20.1 +16.1 78 +23 +23 комфорт 1013.1 998.3
06 15.08 З 3 20 км 6/6 1000 м
[Cu Sc]
+21.2 +14.9 67 +24 +25 комфорт 1014.1 999.4 +17.4 4
09 15.08 ЮЗ 2 20 км 6/6 1000 м
[Cu Sc]
+27.0 +12.3 40 +28 +34 жарко 1012.8 998.4
12 15.08 СЗ 1 20 км 8/8 1000 м
[Cu Sc]
+28.7 +12.5 37 +30 +34 жарко 1011.6 997.3
15 15.08 СЗ 2 20 км 5/5 1000 м
[Cu Sc]
+28.8 +14.0 40 +31 +33 жарко 1010.6 996.3
18 15.08 З 1 20 км 3/3 1000 м
[Sc]
+24.4 +11.4 44 +26 +26 жарко 1012.2 997.6 +29.3
21 15.08 штиль 0 20 км 1/1 1000 м
[Sc]
+20.2 +12.3 60 +22 +22 комфорт 1014.6 999.8
00 16.08 штиль 0 20 км 4/4 1000 м
[Sc]
+18.6 +12.1 66 +19 +19 1015.0 1000.2
03 16.08 штиль 0 20 км 3/3 1000 м
[Sc]
+15.4 +12.0 80 +15 +15 1015.3 1000.3
06 16.08 штиль 0 20 км 8/1 1000 м
[Sc Ac trans]
+20.2 +12.0 59 +22 +24 комфорт 1016.3 1001.5 +14.2
09 16.08 штиль 0 20 км 4/0
[Ac trans]
+25.4 +9.2 36 +26 +41 жарко 1015.2 1000.6
12 16.08 СЗ 2 20 км 3/1 1000 м
[Cu hum Ac trans]
+29.6 +7.7 25 +29 +40 жарко 1013.3 998.9
15 16.08 С 3 20 км ясно +30.4 +8.1 25 +30 +33 жарко 1011.9 997.6
18 16.08 СЗ 2 20 км 3/0
[Ac trans]
+25.0 +7.0 32 +25 +25 комфорт 1012.9 998.3 +31.1
21 16.08 З 2 20 км 1/0
[Ac trans]
+22.4 +6.8 36 +23 +23 комфорт 1015.3 1000.6
00 17.08 штиль 0 20 км 3/0
[Ac trans]
+18.5 +7.9 50 +19 +19 1016.2 1001.3
03 17.08 ЮЗ 1 20 км 3/0
[Ac trans]
+16.7 +8.5 58 +18 +18 1016.7 1001.7
06 17.08 СЗ 1 20 км ясно +20.0 +9.0 49 +22 +27 комфорт 1017.1 1002.3 +16.0
09 17.08 СЗ 2 20 км 1/1 1000 м
[Sc]
+26.5 +9.5 34 +27 +40 жарко 1016.5 1002.1
12 17.08 СЗ 3 20 км 1/1 1000 м
[Sc]
+30.7 +6.6 22 +29 +40 жарко 1014.3 1000.0
15 17.08 СЗ 3 20 км 6/4 1230 м
[Cu Sc Ci fib]
+31.8 +7.4 22 +30 +32 жарко 1013.1 998.9
18 17.08 штиль 0 20 км 1/0
[Ac trans]
+25.7 +7.4 31 +26 +26 жарко 1014.0 999.5 +31.9
21 17.08 ЮЗ 1 20 км ясно +21.1 +7.7 42 +22 +22 комфорт 1015.6 1000.8
00 18.08 ЮЗ 2 20 км ясно +19.0 +9.7 55 +20 +20 1016.8 1001.9
03 18.08 штиль 0 20 км ясно +16.2 +9.5 64 +16 +16 1017.3 1002.3
06 18.08 Ю 1 20 км ясно +19.2 +9.4 53 +21 +26 комфорт 1018.6 1003.7 +15.0
09 18.08 С 2 20 км ясно +27.6 +10.5 34 +28 +43 жарко 1017.1 1002.7
12 18.08 С 1 20 км 1/1 1000 м
[Cu hum]
+32.1 +6.0 20 +30 +46 жарко 1015.3 1001.0
15 18.08 СЗ 2 20 км 1/1 1000 м
[Cu hum]
+33.6 +4.2 16 +31 +35 жарко 1014.1 999.9
18 18.08 Ю 2 20 км ясно +25.0 +6.8 31 +25 +25 комфорт 1014.6 1000.0 +33.7
21 18.08 ЮВ 2 20 км ясно +21.6 +11.5 53 +24 +24 комфорт 1016.3 1001.6
00 19.08 ЮЗ 2 20 км ясно +18.6 +7.0 47 +19 +19 1017.0 1002.1
03 19.08 штиль 0 20 км ясно +15.6 +8.1 61 +15 +15 1017.9 1002.9
06 19.08 штиль 0 20 км ясно +19.2 +10.3 56 +20 +25 1018.4 1003.4 +15.2
09 19.08 С 2 20 км ясно +29.0 +11.8 35 +30 +45 жарко 1018.5 1003.1
12 19.08 Ю 2 20 км 1/1 1000 м
[Cu hum]
+34.2 +9.0 21 +33 +46 жарко 1015.7 1001.6
15 19.08 Ю 2 20 км 3/3 1000 м
[Cu hum]
+34.4 +11.2 24 +34 +37 очень
жарко
1014.8 1000.6
18 19.08 В 2 20 км 3/0
[Ac trans]
+29.2 +12.0 35 +30 +30 жарко 1015.2 1000.8 +34.9
21 19.08 В 5 20 км ясно +25.4 +13.9 49 +28 +28 жарко 1016.6 1002.0
00 20.08 В 2 20 км ясно +23.2 +14.9 60 +27 +27 душно 1017.7 1003.0
03 20.08 Ю 1 20 км ясно +17.6 +12.3 71 +19 +19 1018.8 1003.8
06 20.08 штиль 0 20 км ясно +22.1 +14.0 60 +25 +30 комфорт 1019.9 1005.1 +16.0

 

Местоположение метеостанции Демир-Капия (Македония): широта 41.42 долгота 22.25 высота над уровнем моря 126 м.

В архиве по умолчанию представлена погода в Демир-Капия за последнюю неделю. Архивные данные за месяц целиком и за предыдущие месяцы, начиная с января 2011 года, Вы можете получить, выбрав интересующий диапазон дат из раскрывающегося списка и нажав кнопку "Ввод!".


*Определитесь, кто Вы:
робот инопланетянин человек

Внимание! Время в таблицах - всемирное. Для получения местного времени необходимо прибавить поправку, которая равна 1 ч.

Смотрите также архив погоды в соседних городах и на ближайших метеорологических станциях:

Погода в Струмице (Македония) (33 км)
Погода в Гевгелии (Македония) (37 км)
Погода в Штипе (Македония) (37 км)
Погода в Винице (Македония) (55 км)
Погода в Прилепе (Македония) (58 км)
Погода в Берово (Македония) (60 км)
Погода в Гуришках (Македония) (63 км)
Погода в Тополчани (Македония) (69 км)
Погода в Скопье (Македония) (79 км)
Погода в Битоле (Македония) (84 км)

Пояснения к столбцам:

Ветер - указаны скорость ветра в м/с - средняя за 10 мин, порывы в срок и между сроками (в фигурных скобках) и направление, откуда дует ветер: С - северный, СВ - северо-восточный, В - восточный, ЮВ - юго-восточный, Ю - южный, ЮЗ - юго-западный, З - западный, СЗ - северо-западный.
Видимость - горизонтальная дальность видимости в метрах или километрах. При видимости от 1 до 10 км при отсутствии осадков обычно наблюдается дымка, при ухудшении видимости до 1 км и менее - туман. В сухую погоду видимость может ухудшаться дымом, пылью или мглою.
Явления - указаны атмосферные явления, наблюдавшиеся в срок или в последний час перед сроком; фигурными скобками обозначены явления, наблюдавшиеся между сроками (за 1-3 часа до срока); квадратными скобками обозначены град или гололедные отложения с указанием их диаметра в мм.
Облачность - указаны через наклонную черту общая и нижняя облачность в баллах и высота нижней границы облаков в метрах; квадратными скобками обозначены формы облаков: Ci - перистые, Cs - перисто-слоистые, Cc - перисто-кучевые, Ac - высококучевые, As - высокослоистые, Sc - слоисто-кучевые, Ns - слоисто-дождевые, Cu - кучевые, Cb - кучево-дождевые. Подробнее классификацию облаков см. в Атласе облаков (PDF).
T - Температура воздуха - температура, измеренная на высоте 2 м над землей.
Td - Температура точки росы - температура, при понижении до которой содержащийся в воздухе водяной пар достигнет насыщения.
f - Относительная влажность воздуха - влажноcть воздуха, измеренная на высоте 2 м над землей.
Te - Эффективная температура - температура, которую ощущает одетый по сезону человек в тени. Характеристика душности погоды. При расчете учитывается влияние влажности воздуха и скорости ветра на теплоощущения человека.
Tes - Эффективная температура на солнце - температура, которую ощущает человек, с поправкой на солнечный нагрев. Характеристика знойности погоды. Зависит от высоты солнца над горизонтом, облачности и скорости ветра. Ночью, в пасмурную погоду, а также при ветре 12 м/с и более поправка равна нулю.
P - Атмосферное давление - приведенное к уровню моря атмосферное давление.
Po - Атмосферное давление - измеренное на уровне метеостанции атмосферное давление.
Tmin - Минимальная температура - минимум температуры воздуха на высоте 2 м над землей.
Tmax - Максимальная температура - максимум температуры воздуха на высоте 2 м над землей.
R - Количество осадков - Количество выпавших осадков за период времени, мм. При наведении курсора мыши на число - период времени, за который выпало указанное количество осадков.
R24 - Количество осадков - Количество выпавших осадков за 24 часа, мм.
S - Снежный покров - Высота снежного покрова, см. При наведении курсора мыши на число - состояние снежного покрова и степень покрытия местности в баллах.